{"data":{"norad_id":53711,"intl_designator":"2022-107M","name":"STARLINK-4627","alt_names":[],"object_type":"PAYLOAD","status":"ACTIVE","operator":null,"country":"US","launch_date":"2022-09-05","launch_site_code":"AFETR","launch_vehicle":null,"mission":null,"orbit_class":"UNKNOWN","rcs_meters":null,"size_class":null,"mass_kg":null,"dimensions":null,"purposes":["comms"],"wikipedia_slug":null,"has_3d_model":false,"image_url":null,"decayed_at":null,"tle_current":{"epoch":"2026-09-20T21:42:19.849824Z","epoch_age_seconds":46785,"freshness":"FRESH","line1":"1 53711U 22107M   26263.90439641 -.00001986  00000+0 -47678-4 0  9995","line2":"2 53711  53.1619  76.0356 0000807 111.2811 248.8278 15.34394620224173","mean_motion":15.3439462,"eccentricity":8.07e-5,"inclination_deg":53.1619,"raan_deg":76.0356,"arg_perigee_deg":111.2811,"mean_anomaly_deg":248.8278,"bstar":-4.7678e-5,"rev_number":22417,"period_min":93.848087136802,"perigee_km":462.16717364979,"apogee_km":463.27128784543,"semimajor_km":6840.8562307476,"source":"CELESTRAK","updated_at":"2026-09-21T09:00:32.983813Z"}}}